FENGYUN 1C DEB, 31782

Orbit data source: Space-Track

FENGYUN 1C DEB, 31782 is space debris in SSO originally from a launch on Mon, 10 May 1999 UTC launched from the Taiyaun Space Center, China (TSC). Fengyun 1C debris stems from the Chinese weather satellite Fengyun-1C, which was intentionally destroyed by a Chinese anti-satellite missile in 2007. This event dramatically increased the amount of space debris, with thousands of trackable fragments posing hazards to satellites and human spaceflight. The Fengyun 1C debris cloud has become a focal point in discussions about space sustainability and the need for international regulations to prevent the creation of new debris.

Loading next visibility...
Identifier
31782, 1999-025CGH
Orbit
SSO
Country
Flag of CNCN / PRC
Related business
Manufacturer
Unknown
Mission
Spacecraft
Bus & Motor
Unknown
Mass
Unknown
Launch date (UTC)
1999-05-10 (27 years ago)
Launch vehicle
Unknown
Launch site
Taiyaun Space Center, China (TSC)
Object type
Payload
Rocket body
Debris
Shape & HBR
Unknown shape, 0.1 m
Radar Cross Section
Small (<0.1 m²)

Expand to show TLE details & history
Last TLE update: 5 days ago

TLE from 5 days ago
0 FENGYUN 1C DEB
1 31782U 99025CGH 26233.45502714  .00000602  00000-0  21284-3 0  9998
2 31782  98.9285  48.5223 0078335 336.5670  52.0335 14.36817648  2844
Epoch: 2026-08-21T10:55Z
TLE epoch observation values (Epoch: 2026-08-21T10:55:14.344Z)
Latitude
28.97171°
Longitude
-90.03031°
Altitude
738.453 km
Speed
7.506 km/s
True Right ascension
02h 54m 14s
True Declination
28° 49' 33"
Sunlit
Object was in daylight at epoch
Visualization orbit readout
Latitude
Unknown
Longitude
Unknown
Altitude
Unknown
Speed
Unknown
Apparent Right ascension
Unknown
Apparent Declination
Unknown
Sunlit
N/A
Visualization observer readout
Local Sidereal Time
02:59:17
Azimuth
Unknown
Elevation
Unknown
Doppler factor
Unknown
Orbital elements
Apogee altitude
822.144 km
Perigee altitude
710.214 km
Semi-major axis
7,144.316 km
Eccentricity
0.00783
Inclination
98.9285°
RAAN
48.5223°
Arg. of periapsis
336.567°
True anomaly
52.74545°
Mean anomaly
52.0335°
Eccentric anomaly
52.38905°
Mean motion
3.5942 °/min
Orbital period
100.16 mins
BSTAR
0.00021284
Loading maneuver chart data...
Computing Atmospheric mass density...

Documentation

Showing up to 5 results
|